sat.trackr.live / text

‹ back to catalog

UNKNOWN

NORAD 82708

UNKNOWN UNKNOWN UNKNOWN

§ Identity

Operator
Country
Launch date
Launch site
Launch vehicle
Mass (kg)
RCS (m²)

External: N2YO · Heavens-Above

§ Orbital elements

Epoch: 2026-05-23T20:48:16.821504Z

Period
111.55 min
Inclination
102.1542°
Eccentricity
0.0066222
Mean motion
12.90870923 rev/d
Perigee alt
1,247.2 km
Apogee alt
1,348.9 km
Semi-major
7,676.2 km
B*
2.6791e-3
RAAN
7.6870°
Arg perigee
320.1057°
Mean anomaly
39.5178°
Rev number
54,443

§ Raw data

UNKNOWN1 82708U          26143.86686136  .00000663  00000+0  26791-2 0  99962 82708 102.1542   7.6870 0066222 320.1057  39.5178 12.90870923544430

JSON: /api/v1/satellites/82708 · /tle

For live sub-satellite position, see the globe view (requires WebGL).

§ Visibility from observer

Set your observer location to see the next 7 days of passes ≥ 10°. The values pass through the URL so the page stays shareable.

No JS? Fill the form by hand. The geolocation button needs JavaScript.